Starlink 31057

operational
NORAD ID: 58545 Int'l Des: 2023-192 Owner: SPXS Country: US Constellation: starlink
LEOCIRCULAR

About Starlink 31057

Description loading...

Live Position

Loading 3D Globe...

Upcoming Passes

Altitude History

Altitude vs Time

uPlot chart will show altitude changes over time

Two-Line Element Set

1 58545U 23192Q 26035.71359204 .00000218 00000-0 19475-4 0 9992
2 58545 53.1580 216.1170 0001142 76.1434 283.9693 15.30193371120930
Epoch: Feb 4, 2026 • Age: 17 hours

Current Status

Altitude 475.0 km
Velocity 7.63 km/s
Sub-Earth Point 14.59°N, 68.37°W
Launch Date Dec 8, 2023
Age 2.1 years
Type internet

Technical Details

Classification Payload
Mass 730.00 kg
Dry Mass 700.00 kg
Total Mass 730.00 kg
Length 0.30 m
Diameter 4.10 m
Span 29.00 m
Shape Box + pan
Manufacturer SPXS
Bus Type Starlink V2M
Phase Status In Orbit
Owner/State SPXS/US

Large Constellations

Loading constellations...